Location: Central Falls
(41.8900°N, 71.3929°W)
Time: 02:57:54
(UTC+00:00)

Tiros 1 - Pass Details

Date: 14 December 2023
Orbit: 625 x 658 km, 48.4° (Epoch: 01 March)

Event Time Altitude Azimuth Distance (km) Brightness Sun altitude
Rises 11:25:03 0° 296° (WNW) 2,987 - -7.5°
Exits shadow 11:27:09 - 293° (WNW) 2,182 9.2 -7.1°
Reaches altitude 10° 11:27:26 10° 293° (WNW) 2,074 9.1 -7.1°
Maximum altitude 11:32:07 57° 215° (SW) 773 7.5 -6.3°
Drops below altitude 10° 11:36:48 10° 137° (SE) 2,061 11.1 -5.5°
Sets 11:39:09 0° 133° (SE) 2,966 12.4 -5.1°
